sat.trackr.live / text

‹ back to catalog

STARLINK-36487

NORAD 67416 · 2026-005N

PAYLOAD ACTIVE UNKNOWN

§ Identity

Operator
Country
US
Launch date
2026-01-12
Launch site
AFETR
Launch vehicle
Mass (kg)
RCS (m²)

Purposes: comms

External: N2YO · Heavens-Above · Gunter

§ Orbital elements

Epoch: 2026-09-19T07:13:06.515040Z

Period
94.27 min
Inclination
43.0011°
Eccentricity
0.0001410
Mean motion
15.27579992 rev/d
Perigee alt
482.1 km
Apogee alt
484.0 km
Semi-major
6,861.2 km
B*
2.0826e-4
RAAN
224.8466°
Arg perigee
270.9773°
Mean anomaly
89.0918°
Rev number
3,830

§ Raw data

STARLINK-364871 67416U 26005N   26262.30076985  .00005473  00000+0  20826-3 0  99922 67416  43.0011 224.8466 0001410 270.9773  89.0918 15.27579992 38303

JSON: /api/v1/satellites/67416 · /tle

For live sub-satellite position, see the globe view (requires WebGL).

§ Visibility from observer

Set your observer location to see the next 7 days of passes ≥ 10°. The values pass through the URL so the page stays shareable.

No JS? Fill the form by hand. The geolocation button needs JavaScript.